Location: Palo Alto
(37.4420°N, 122.1420°W)
Time: 09:32:32
(UTC-07:00)

X-37B - Pass Details

Date: 15 August 2020
Orbit: 386 x 387 km, 45.0° (Epoch: 18 September)

Event Time Altitude Azimuth Distance (km) Brightness Sun altitude
Rises 22:41:24 0° 299° (WNW) 2,265 5.6 -27.8°
Reaches altitude 10° 22:43:29 10° 302° (WNW) 1,409 4.3 -28.1°
Enters shadow 22:44:10 15° 304° (NW) 1,131 3.7 -28.2°
